LRTR Weather Reports


Display with metric or nautical units.
time (UTC)temp
F
wind
direction
speed
MPH
gust
MPH
rain 1hr
in
rain 24hr
in
rain mn
in
humidity
%
barometer
mb
20260503180304 57 300 6.0 0.0 0.00 0.00 0.00 48 1018.0
20260503174825 61 280 6.0 0.0 0.00 0.00 0.00 42 1018.0
20260503173329 61 280 6.0 0.0 0.00 0.00 0.00 42 1018.0
20260503171805 63 280 7.0 0.0 0.00 0.00 0.00 39 1018.0
20260503170305 63 280 7.0 0.0 0.00 0.00 0.00 39 1018.0
20260503150305 68 5.0 0.0 0.00 0.00 0.00 28 1019.0
20260503140312 66 320 8.0 0.0 0.00 0.00 0.00 28 1019.0
20260503130305 64 3.0 0.0 0.00 0.00 0.00 32 1020.0
20260503110325 63 150 6.0 0.0 0.00 0.00 0.00 37 1021.0
20260503090326 61 5.0 0.0 0.00 0.00 0.00 45 1023.0
20260503080315 57 3.0 0.0 0.00 0.00 0.00 48 1023.0
20260503071807 54 2.0 0.0 0.00 0.00 0.00 58 1023.0
20260503070306 54 2.0 0.0 0.00 0.00 0.00 58 1023.0
20260503060305 50 80 3.0 0.0 0.00 0.00 0.00 67 1023.0
20260503054805 48 70 3.0 0.0 0.00 0.00 0.00 71 1022.0
20260503053305 48 70 3.0 0.0 0.00 0.00 0.00 71 1022.0
20260503051805 45 10 2.0 0.0 0.00 0.00 0.00 87 1022.0
20260503050306 45 10 2.0 0.0 0.00 0.00 0.00 87 1022.0
20260503044805 41 1.0 0.0 0.00 0.00 0.00 87 1022.0
20260503043306 41 1.0 0.0 0.00 0.00 0.00 87 1022.0
20260503041805 37 130 3.0 0.0 0.00 0.00 0.00 93 1022.0
20260503040328 37 130 3.0 0.0 0.00 0.00 0.00 93 1022.0
20260503034807 41 120 3.0 0.0 0.00 0.00 0.00 87 1021.0
20260503033305 41 120 3.0 0.0 0.00 0.00 0.00 87 1021.0
20260503031805 43 120 6.0 0.0 0.00 0.00 0.00 81 1021.0
20260503030305 43 120 6.0 0.0 0.00 0.00 0.00 81 1021.0
20260503024820 39 110 5.0 0.0 0.00 0.00 0.00 87 1021.0
20260503023305 39 110 5.0 0.0 0.00 0.00 0.00 87 1021.0
20260503021805 41 0 0.0 0.0 0.00 0.00 0.00 81 1021.0
20260503020305 41 0 0.0 0.0 0.00 0.00 0.00 81 1021.0
20260503014805 41 0 0.0 0.0 0.00 0.00 0.00 81 1021.0
20260503013305 41 0 0.0 0.0 0.00 0.00 0.00 81 1021.0
20260503011805 41 130 6.0 0.0 0.00 0.00 0.00 81 1021.0
20260503010305 41 130 6.0 0.0 0.00 0.00 0.00 81 1021.0
20260503004805 41 2.0 0.0 0.00 0.00 0.00 76 1021.0
20260503003305 41 2.0 0.0 0.00 0.00 0.00 76 1021.0
20260503001805 41 100 6.0 0.0 0.00 0.00 0.00 76 1021.0
20260503000305 41 100 6.0 0.0 0.00 0.00 0.00 76 1021.0
20260502234805 43 130 6.0 0.0 0.00 0.00 0.00 71 1020.0
20260502233305 43 130 6.0 0.0 0.00 0.00 0.00 71 1020.0
20260502231805 41 70 3.0 0.0 0.00 0.00 0.00 81 1020.0
20260502230305 41 70 3.0 0.0 0.00 0.00 0.00 81 1020.0
20260502224805 43 50 5.0 0.0 0.00 0.00 0.00 76 1020.0
20260502223304 43 50 5.0 0.0 0.00 0.00 0.00 76 1020.0
20260502221805 41 40 6.0 0.0 0.00 0.00 0.00 81 1020.0
20260502220305 41 40 6.0 0.0 0.00 0.00 0.00 81 1020.0
20260502214805 43 70 7.0 0.0 0.00 0.00 0.00 76 1020.0
20260502213305 43 70 7.0 0.0 0.00 0.00 0.00 76 1020.0
20260502211805 45 70 9.0 0.0 0.00 0.00 0.00 71 1020.0
20260502210305 45 70 9.0 0.0 0.00 0.00 0.00 71 1020.0
20260502204805 45 60 7.0 0.0 0.00 0.00 0.00 76 1020.0
20260502203305 45 60 7.0 0.0 0.00 0.00 0.00 76 1020.0
20260502201805 46 80 9.0 0.0 0.00 0.00 0.00 71 1020.0
20260502200305 46 80 9.0 0.0 0.00 0.00 0.00 71 1020.0
20260502194805 48 70 7.0 0.0 0.00 0.00 0.00 71 1020.0
20260502193305 48 70 7.0 0.0 0.00 0.00 0.00 71 1020.0
20260502191805 52 80 9.0 0.0 0.00 0.00 0.00 58 1020.0
20260502190305 52 80 9.0 0.0 0.00 0.00 0.00 58 1020.0
20260502184805 54 70 8.0 0.0 0.00 0.00 0.00 58 1019.0
20260502183305 54 70 8.0 0.0 0.00 0.00 0.00 58 1019.0
20260502181805 59 90 9.0 0.0 0.00 0.00 0.00 42 1019.0